WESTFORD NEEDLES, 19891

Orbit data source: Space-Track

WESTFORD NEEDLES, 19891 is space debris in LEO originally from a launch on Thu, 09 May 1963 UTC launched from the Air Force Western Test Range (AFWTR). Debris objects in space refer to the collection of defunct objects orbiting the Earth. Examples of debris include non-operational satellites, rocket bodies, and fragments generated from explosions, collisions, or faulty payload assembly.

Loading next visibility...
Identifier
19891, 1963-014ET
Orbit
LEO
Country
Flag of USUS
Related business
Manufacturer
Unknown
Mission
Spacecraft
Bus & Motor
Unknown
Mass
Unknown
Launch date (UTC)
1963-05-09 (63 years ago)
Launch vehicle
Unknown
Launch site
Air Force Western Test Range (AFWTR)
Object type
Payload
Rocket body
Debris
Shape & HBR
Unknown shape, 0.2 m
Radar Cross Section
Medium (>0.1 m² and <1 m²)

Expand to show TLE details & history
Last TLE update: 5 days ago

TLE from 5 days ago
0 WESTFORD NEEDLES
1 19891U 63014ET  26120.08182470  .00000104  00000-0  44787-1 0  9999
2 19891  87.3019 160.0622 0294081 313.8428  65.8834  8.66887741385799
Epoch: 2026-04-30T01:57Z
TLE epoch observation values (Epoch: 2026-04-30T01:57:49.654Z)
Latitude
22.83198°
Longitude
-86.2959°
Altitude
3,520.916 km
Speed
6.383 km/s
True Right ascension
10h 44m 46s
True Declination
22° 44' 37"
Sunlit
Object was in daylight at epoch
Visualization orbit readout
Latitude
Unknown
Longitude
Unknown
Altitude
Unknown
Speed
Unknown
Apparent Right ascension
Unknown
Apparent Declination
Unknown
Sunlit
N/A
Visualization observer readout
Local Sidereal Time
00:41:39
Azimuth
Unknown
Elevation
Unknown
Doppler factor
Unknown
Orbital elements
Apogee altitude
3,923.815 km
Perigee altitude
3,335.203 km
Semi-major axis
10,007.646 km
Eccentricity
0.02941
Inclination
87.3019°
RAAN
160.0622°
Arg. of periapsis
313.8428°
True anomaly
69.00451°
Mean anomaly
65.8834°
Eccentric anomaly
67.43942°
Mean motion
2.16793 °/min
Orbital period
166.06 mins
BSTAR
0.044787
Loading maneuver chart data...
Computing Atmospheric mass density...
Loading historical data...
Loading historical data...
Loading historical data...
Loading historical data...
Loading historical data...
Loading historical data...
Loading historical data...

Documentation

Showing up to 5 results
|